Regional Weather Roundup
Issued by NWS

Home | Current Version | Previous Version | Text Only | Print | Product List | Glossary Off
Versions: 1 2 3 4 5 6 7 8 9 10 11 12 13 14 15 16 17 18 19 20 21 22 23 24 25 26 27 28

000
ASUS45 KCYS 221010
RWRWY

WYOMING REGIONAL WEATHER ROUNDUP
NATIONAL WEATHER SERVICE CHEYENNE WY
400 AM MDT TUE AUG 22 2017

NOTE:  "FAIR" INDICATES FEW OR NO CLOUDS BELOW 12,000 FEET
WITH NO SIGNIFICANT WEATHER AND/OR OBSTRUCTIONS TO VISIBILITY.

WYZ001-221100-
YELLOWSTONE NATIONAL PARK

CITY           SKY/WX    TMP DP  RH WIND       PRES   REMARKS
LK YELLOWSTONE   N/A     36  33  89 CALM      30.43F
W YELLOWSTONE  NOT AVBL

$$
WYZ002>013-054>058-071-098>099-221100-
NORTHERN WYOMING

CITY           SKY/WX    TMP DP  RH WIND       PRES   REMARKS
JACKSON        FAIR      41  31  67 E5        30.35R
CODY           FAIR      54  37  52 CALM      30.26S
GREYBULL       FAIR      54  38  54 SE3       30.19S
WORLAND        FAIR      49  33  54 S3        30.20S
SHERIDAN       FAIR      46  38  73 S5        30.19S
BUFFALO        FAIR      56  32  40 SE6       30.25F
GILLETTE       FAIR      58  36  43 S13       30.22F
HULETT         FAIR      52  36  54 S3        30.25S
NEWCASTLE      FAIR      45  36  70 CALM      30.27S

$$
WYZ014>020-022>026-101>103-221100-
CENTRAL WYOMING

CITY           SKY/WX    TMP DP  RH WIND       PRES   REMARKS
BIG PINEY      FAIR      36  23  59 CALM      30.37S
PINEDALE       FAIR      34  28  80 W7        30.38S WCI  28
DUBOIS         FAIR      45  30  57 NW9       30.39S
LANDER           N/A    N/A N/A N/A MISG      30.29S
RIVERTON       FAIR      56  34  43 N6        30.27S
CASPER         FAIR      48  37  65 NW7       30.27S
DOUGLAS        FAIR      55  41  59 E10       30.27F

$$
WYZ021-027>030-104>119-221100-
SOUTHERN WYOMING

CITY           SKY/WX    TMP DP  RH WIND       PRES   REMARKS
EVANSTON       FAIR      57  36  45 SE7       30.36S
KEMMERER         N/A     43  32  65 N8        30.38S
FORT BRIDGER   FAIR      61  32  33 W8        30.38S
ROCK SPRINGS   FAIR      58  35  42 SE8       30.34S
RAWLINS        NOT AVBL
SARATOGA       FAIR      50  37  62 S9        30.34F
LARAMIE        FAIR      53  43  68 S16       30.36F
CHEYENNE       FAIR      52  45  77 SW7       30.36S
TORRINGTON     FAIR      53  43  68 E3        30.26S
PINE BLUFFS    FAIR      55  46  71 E7        30.31S

$$




USA.gov is the U.S. government's official web portal to all federal, state and local government web resources and services.